This demonstration page uses our WeatherBlox Daily Observations layout. Learn more.

Left ArrowRight Arrow

41.86663, -103.66717

Hourly Observations for September 2, 2021

Temp ( °F °C ) Dew Point ( °F °C ) Humidity (%) Winds ( mph kmh ) Pressure ( in mb ) Visibility ( mi km ) Precip ( " mm )
12:16 am 00:16 Cloudy 68 20 60 15.6 76 76 NNE 3 6 29.67 1005 10 16 0.00 0.00
12:53 am 00:53 Cloudy 68 20 61 16.1 78 78 NNW 6 9 29.71 1006 10 16 0.00 0.00
1:32 am 01:32 Cloudy 67 19.4 61 16.1 81 81 NNW 6 9 29.68 1005 10 16 0.00 0.00
1:53 am 01:53 Cloudy 68 20 61 16.1 78 78 N 8 13 29.70 1006 10 16 0.00 0.00
2:20 am 02:20 Cloudy 68 20 61 16.1 78 78 N 7 11 29.66 1004 10 16 0.00 0.00
2:39 am 02:39 Cloudy 67 19.4 61 16.1 81 81 NW 7 11 29.68 1005 10 16 0.00 0.00
2:53 am 02:53 Cloudy 67 19.4 61 16.1 81 81 NW 8 13 29.69 1005 10 16 0.00 0.00
3:53 am 03:53 Cloudy 67 19.4 61 16.1 81 81 NW 7 11 29.70 1006 10 16 0.00 0.00
4:11 am 04:11 Mostly Cloudy 67 19.4 61 16.1 81 81 NW 10 17 29.68 1005 10 16 0.00 0.00
4:51 am 04:51 Partly Cloudy 66 19 59 15 78 78 NW 6 9 29.71 1006 10 16 0.00 0.00
4:53 am 04:53 Mostly Clear 66 18.9 59 15 78 78 NW 6 9 29.72 1007 10 16 0.00 0.00
5:53 am 05:53 Mostly Cloudy 64 17.8 58 14.4 81 81 W 6 9 29.74 1007 10 16 0.00 0.00
6:53 am 06:53 Mostly Cloudy 63 17.2 55 12.8 76 76 NW 3 6 29.77 1008 10 16 0.00 0.00
7:53 am 07:53 Mostly Cloudy 67 19.4 54 12.2 63 63 WNW 7 11 29.79 1009 10 16 0.00 0.00
8:53 am 08:53 Mostly Cloudy 71 21.7 55 12.8 57 57 WNW 13 20 29.80 1009 10 16 0.00 0.00
9:53 am 09:53 Mostly Cloudy 77 25 55 12.8 47 47 NW 16 26 29.80 1009 10 16 0.00 0.00
10:53 am 10:53 Mostly Sunny 77 25 55 12.8 47 47 WNW 15 24 29.80 1009 10 16 0.00 0.00
11:53 am 11:53 Cloudy 78 25.6 53 11.7 42 42 WNW 12 19 29.80 1009 10 16 0.00 0.00
12:53 pm 12:53 Mostly Sunny 81 27.2 50 10 34 34 VRB 3 6 29.80 1009 9 14 0.00 0.00
1:53 pm 13:53 Mostly Sunny 85 29.4 49 9.4 29 29 W 6 9 29.78 1008 9 14 0.00 0.00
2:53 pm 14:53 Sunny 86 30 48 8.9 27 27 undefined N/A 29.78 1008 9 14 0.00 0.00
3:53 pm 15:53 Mostly Sunny 87 30.6 47 8.3 25 25 WNW 8 13 29.78 1009 9 14 0.00 0.00
4:53 pm 16:53 Mostly Sunny 87 30.6 48 8.9 26 26 NNW 7 11 29.79 1009 9 14 0.00 0.00
5:53 pm 17:53 Partly Cloudy 85 29.4 49 9.4 29 29 VRB 3 6 29.80 1009 9 14 0.00 0.00
6:53 pm 18:53 Sunny 79 26.1 52 11.1 39 39 Calm 29.83 1010 10 16 0.00 0.00
7:53 pm 19:53 Clear 72 22.2 56 13.3 57 57 NE 8 13 29.85 1011 10 16 0.00 0.00
8:53 pm 20:53 Clear 70 21.1 58 14.4 66 66 E 6 9 29.89 1012 10 16 0.00 0.00
9:53 pm 21:53 Clear 65 18.3 57 13.9 76 76 NE 3 6 29.92 1013 10 16 0.00 0.00
10:53 pm 22:53 Clear 66 18.9 58 14.4 75 75 ESE 7 11 29.92 1013 10 16 0.00 0.00
11:53 pm 23:53 Clear 63 17.2 57 13.9 81 81 ENE 6 9 29.93 1014 10 16 0.00 0.00

Powered by AerisWeather